Weather History for Bentonville, AR

Change the Weather History Date:

Monday, April 29, 2013

  Actual Average Record
Temperature  
Mean Temperature 66 °F -  
Max Temperature 82 °F 72 °F 89 °F (1962)
Min Temperature 51 °F 47 °F 33 °F (1979)
Cooling Degree Days 2    
Growing Degree Days 16 (Base 50)    
Moisture  
Dew Point 53 °F    
Average Humidity 59    
Maximum Humidity 88    
Minimum Humidity 37    
Precipitation  
Precipitation 0.00 in - - ()
Sea Level Pressure  
Sea Level Pressure 29.85 in    
Wind  
Wind Speed 8 mph (South)    
Max Wind Speed 16 mph    
Max Gust Speed 23 mph    
Visibility 10 miles    
Events      
Averages and records for this station are not official NWS values.
T = Trace of Precipitation, MM = Missing Value Source: NWS Daily Summary

Daily Weather History Graph

Daily Weather History Graph

Search for Another Location

Airport:

Trip Planner

Search our weather history database for the weather conditions in past years. The results will help you decide how hot, cold, wet, or windy it might be!

Date:

Astronomy

Apr. 29, 2013 Rise Set
Actual Time 6:25 AM CDT 8:03 PM CDT
Civil Twilight 5:58 AM CDT 8:30 PM CDT
Nautical Twilight 5:25 AM CDT 9:03 PM CDT
Astronomical Twilight 4:50 AM CDT 9:39 PM CDT
Moon No Moon Rise 9:50 AM CDT (4/29)
Length of Visible Light 14h 32m
Length of Day
13h 37m
Waning Gibbous, 80% of the Moon is Illuminated
Apr 29
Waning Gibbous
May 2
Last Quarter
May 9
New
May 17
First Quarter
May 24
Full

Hourly Weather History & Observations

Time (CDT) Temp. Heat Index Dew Point Humidity Pressure Visibility Wind Dir Wind Speed Gust Speed Precip Events Conditions
12:15 AM 59.0 °F - 50.0 °F 72% 29.89 in 10.0 mi South 5.8 mph - N/A   Clear
12:35 AM 55.4 °F - 48.2 °F 77% 29.89 in 10.0 mi SSE 4.6 mph - N/A   Clear
2:35 AM 55.4 °F - 48.2 °F 77% 29.88 in 10.0 mi South 4.6 mph - N/A   Clear
2:55 AM 55.4 °F - 48.2 °F 77% 29.88 in 10.0 mi South 5.8 mph - N/A   Clear
3:15 AM 53.6 °F - 46.4 °F 77% 29.87 in 10.0 mi SSE 6.9 mph - N/A   Clear
3:35 AM 53.6 °F - 48.2 °F 82% 29.87 in 10.0 mi SSE 4.6 mph - N/A   Clear
3:55 AM 53.6 °F - 48.2 °F 82% 29.87 in 10.0 mi SSE 5.8 mph - N/A   Clear
4:15 AM 53.6 °F - 48.2 °F 82% 29.87 in 10.0 mi SSE 4.6 mph - N/A   Clear
4:35 AM 51.8 °F - 48.2 °F 88% 29.88 in 10.0 mi Calm Calm - N/A   Clear
4:55 AM 51.8 °F - 46.4 °F 82% 29.88 in 10.0 mi SSE 4.6 mph - N/A   Clear
5:15 AM 53.6 °F - 48.2 °F 82% 29.88 in 10.0 mi SSE 4.6 mph - N/A   Clear
5:35 AM 53.6 °F - 48.2 °F 82% 29.89 in 10.0 mi Calm Calm - N/A   Clear
5:55 AM 53.6 °F - 48.2 °F 82% 29.89 in 10.0 mi East 3.5 mph - N/A   Clear
6:15 AM 53.6 °F - 48.2 °F 82% 29.89 in 10.0 mi ESE 5.8 mph - N/A   Clear
6:35 AM 51.8 °F - 46.4 °F 82% 29.89 in 10.0 mi SE 5.8 mph - N/A   Clear
6:55 AM 53.6 °F - 48.2 °F 82% 29.90 in 10.0 mi SSE 5.8 mph - N/A   Clear
7:15 AM 55.4 °F - 50.0 °F 82% 29.91 in 10.0 mi SSE 5.8 mph - N/A   Clear
7:35 AM 57.2 °F - 51.8 °F 82% 29.91 in 10.0 mi SSE 4.6 mph - N/A   Clear
7:55 AM 59.0 °F - 53.6 °F 82% 29.92 in 10.0 mi South 6.9 mph - N/A   Clear
8:15 AM 62.6 °F - 53.6 °F 72% 29.92 in 10.0 mi South 6.9 mph - N/A   Clear
8:35 AM 64.4 °F - 53.6 °F 68% 29.91 in 10.0 mi South 9.2 mph - N/A   Clear
8:55 AM 66.2 °F - 55.4 °F 68% 29.91 in 10.0 mi South 10.4 mph - N/A   Clear
9:15 AM 66.2 °F - 55.4 °F 68% 29.91 in 10.0 mi SSW 8.1 mph - N/A   Clear
9:35 AM 69.8 °F - 57.2 °F 64% 29.91 in 10.0 mi SSW 9.2 mph - N/A   Clear
9:55 AM 71.6 °F - 59.0 °F 64% 29.91 in 10.0 mi SSW 10.4 mph - N/A   Clear
10:15 AM 71.6 °F - 59.0 °F 64% 29.91 in 10.0 mi SSW 9.2 mph 18.4 mph N/A   Clear
10:35 AM 73.4 °F - 60.8 °F 65% 29.91 in 10.0 mi SSW 15.0 mph 19.6 mph N/A   Clear
10:55 AM 75.2 °F - 60.8 °F 61% 29.90 in 10.0 mi SW 13.8 mph - N/A   Clear
11:15 AM 75.2 °F - 60.8 °F 61% 29.90 in 10.0 mi SSW 10.4 mph 17.3 mph N/A   Clear
11:35 AM 77.0 °F - 59.0 °F 54% 29.89 in 10.0 mi SW 11.5 mph 19.6 mph N/A   Clear
11:55 AM 78.8 °F - 57.2 °F 47% 29.89 in 10.0 mi SW 15.0 mph 21.9 mph N/A   Clear
12:15 PM 78.8 °F - 59.0 °F 51% 29.89 in 10.0 mi SW 13.8 mph 20.7 mph N/A   Clear
12:35 PM 78.8 °F - 57.2 °F 47% 29.88 in 10.0 mi SSW 16.1 mph 23.0 mph N/A   Clear
12:55 PM 78.8 °F - 55.4 °F 44% 29.87 in 10.0 mi SW 15.0 mph 21.9 mph N/A   Clear
1:15 PM 78.8 °F - 57.2 °F 47% 29.87 in 10.0 mi SSW 13.8 mph 18.4 mph N/A   Clear
1:35 PM 80.6 °F 80.5 °F 55.4 °F 42% 29.86 in 10.0 mi SW 11.5 mph 19.6 mph N/A   Clear
1:55 PM 80.6 °F 80.5 °F 55.4 °F 42% 29.85 in 10.0 mi SSW 15.0 mph - N/A   Clear
2:15 PM 80.6 °F 80.3 °F 53.6 °F 39% 29.84 in 10.0 mi SSW 16.1 mph 23.0 mph N/A   Clear
2:35 PM 80.6 °F 80.5 °F 55.4 °F 42% 29.84 in 10.0 mi SSW 11.5 mph 19.6 mph N/A   Clear
2:55 PM 80.6 °F 80.3 °F 53.6 °F 39% 29.83 in 10.0 mi SSW 16.1 mph 23.0 mph N/A   Clear
3:15 PM 82.4 °F 81.4 °F 53.6 °F 37% 29.83 in 10.0 mi SW 12.7 mph 19.6 mph N/A   Clear
3:35 PM 82.4 °F 81.4 °F 53.6 °F 37% 29.82 in 10.0 mi SW 13.8 mph 19.6 mph N/A   Clear
3:55 PM 82.4 °F 81.7 °F 55.4 °F 39% 29.81 in 10.0 mi SSW 9.2 mph - N/A   Clear
4:15 PM 82.4 °F 81.7 °F 55.4 °F 39% 29.81 in 10.0 mi SSW 12.7 mph 18.4 mph N/A   Clear
4:35 PM 82.4 °F 81.7 °F 55.4 °F 39% 29.80 in 10.0 mi South 15.0 mph - N/A   Clear
4:55 PM 82.4 °F 81.7 °F 55.4 °F 39% 29.80 in 10.0 mi SSW 9.2 mph - N/A   Clear
5:15 PM 82.4 °F 82.0 °F 57.2 °F 42% 29.80 in 10.0 mi SSW 12.7 mph 18.4 mph N/A   Clear
5:35 PM 82.4 °F 82.0 °F 57.2 °F 42% 29.80 in 10.0 mi South 16.1 mph 21.9 mph N/A   Clear
5:55 PM 82.4 °F 81.4 °F 53.6 °F 37% 29.79 in 10.0 mi SSW 15.0 mph 20.7 mph N/A   Clear
6:15 PM 80.6 °F - 51.8 °F 37% 29.79 in 10.0 mi SSW 12.7 mph 21.9 mph N/A   Clear
6:35 PM 80.6 °F - 51.8 °F 37% 29.78 in 10.0 mi South 10.4 mph - N/A   Clear
6:55 PM 80.6 °F 80.3 °F 53.6 °F 39% 29.78 in 10.0 mi SSW 11.5 mph 17.3 mph N/A   Clear
7:15 PM 78.8 °F - 53.6 °F 42% 29.78 in 10.0 mi SSW 10.4 mph - N/A   Clear
7:35 PM 78.8 °F - 53.6 °F 42% 29.79 in 10.0 mi South 8.1 mph - N/A   Clear
7:55 PM 75.2 °F - 53.6 °F 47% 29.79 in 10.0 mi South 6.9 mph - N/A   Clear
8:15 PM 75.2 °F - 51.8 °F 44% 29.79 in 10.0 mi South 6.9 mph - N/A   Clear
8:35 PM 71.6 °F - 51.8 °F 50% 29.79 in 10.0 mi South 8.1 mph - N/A   Clear
8:55 PM 69.8 °F - 51.8 °F 53% 29.80 in 10.0 mi South 6.9 mph - N/A   Clear
9:15 PM 68.0 °F - 51.8 °F 56% 29.80 in 10.0 mi South 6.9 mph - N/A   Clear
10:35 PM 66.2 °F - 51.8 °F 60% 29.82 in 10.0 mi South 8.1 mph - N/A   Clear
10:55 PM 66.2 °F - 51.8 °F 60% 29.82 in 10.0 mi South 5.8 mph - N/A   Clear
11:15 PM 64.4 °F - 51.8 °F 64% 29.82 in 10.0 mi South 9.2 mph - N/A   Clear
11:35 PM 66.2 °F - 51.8 °F 60% 29.82 in 10.0 mi South 6.9 mph - N/A   Clear
11:55 PM 66.2 °F - 51.8 °F 60% 29.83 in 10.0 mi South 6.9 mph - N/A   Clear